This demonstration page uses our WeatherBlox Daily Observations layout. Learn more.

Left ArrowRight Arrow

30.21309, -93.2044

Hourly Observations for July 5, 2021

Temp ( °F °C ) Dew Point ( °F °C ) Humidity (%) Winds ( mph kmh ) Pressure ( in mb ) Visibility ( mi km ) Precip ( " mm )
12:15 am 00:15 Partly Cloudy 78 25.6 75 24 91 91 Calm 29.93 1014 10 16 0.00 0.00
12:35 am 00:35 Partly Cloudy 79 26 76 24.2 90 90 SW 3 6 29.93 1014 10 16 0.00 0.00
12:55 am 00:55 Partly Cloudy 80 26.4 75 24.1 87 87 Calm 29.93 1014 10 16 0.00 0.00
1:15 am 01:15 Mostly Cloudy 80 26.6 75 24.1 86 86 WSW 3 6 29.92 1013 10 16 0.00 0.00
1:35 am 01:35 Cloudy 79 26 75 24.1 89 89 Calm 29.92 1013 10 16 0.00 0.00
1:55 am 01:55 Mostly Cloudy 79 25.9 75 24.1 90 90 Calm 29.91 1013 10 16 0.00 0.00
2:15 am 02:15 Partly Cloudy 79 25.9 75 24 89 89 WNW 5 7 29.91 1013 10 16 0.00 0.00
2:35 am 02:35 Clear 80 26.7 75 23.7 84 84 SW 3 6 29.91 1013 10 16 0.00 0.00
2:55 am 02:55 Clear 77 25.1 75 23.7 92 92 NNE 3 6 29.91 1013 10 16 0.00 0.00
3:15 am 03:15 Clear with Mist and Fog 77 25 74 23.6 92 92 Calm 29.90 1013 7 11 0.00 0.00
3:35 am 03:35 Clear with Mist and Fog 77 25.1 75 23.7 92 92 Calm 29.90 1013 7 11 0.00 0.00
3:55 am 03:55 Clear with Mist and Fog 77 24.8 74 23.6 93 93 NNE 3 6 29.91 1013 4 6 0.00 0.00
4:15 am 04:15 Clear with Mist and Fog 77 24.8 75 23.7 94 94 NNE 3 6 29.91 1013 5 8 0.00 0.00
4:35 am 04:35 Clear with Mist and Fog 77 24.9 75 23.8 94 94 NNE 5 7 29.91 1013 4 6 0.00 0.00
4:55 am 04:55 Clear with Mist and Fog 77 24.8 75 23.7 94 94 NNE 5 7 29.91 1013 5 8 0.00 0.00
5:15 am 05:15 Clear with Mist and Fog 76 24.6 74 23.5 94 94 NE 3 6 29.91 1013 5 8 0.00 0.00
5:35 am 05:35 Clear with Mist and Fog 76 24.7 74 23.5 93 93 Calm 29.91 1013 7 11 0.00 0.00
6:00 am 06:00 Mostly Clear 75 24 73 23 94 94 Calm 29.92 1013 7 11 0.00 0.00
6:50 am 06:50 Mostly Sunny 75 24 73 23 94 94 Calm 29.94 1014 7 11 0.00 0.00
7:50 am 07:50 Mostly Sunny 79 26 75 24 89 89 ENE 6 9 29.95 1014 7 11 0.00 0.00
8:55 am 08:55 Mostly Sunny 82 28 75 24 79 79 Calm 29.97 1015 10 16 0.00 0.00
9:55 am 09:55 Partly Cloudy 84 29 75 24 74 74 Calm 29.96 1015 10 16 0.00 0.00
10:55 am 10:55 Partly Cloudy 84 29 73 23 70 70 Calm 29.97 1015 10 16 0.00 0.00
11:45 am 11:45 Partly Cloudy 88 31 73 23 62 62 Calm 29.97 1015 10 16 0.00 0.00
12:55 pm 12:55 Partly Cloudy 88 31 72 22 59 59 Calm 29.96 1015 10 16 0.00 0.00
1:50 pm 13:50 Mostly Cloudy 90 32 73 23 59 59 E 8 13 29.95 1014 10 16 0.00 0.00
2:49 pm 14:49 Mostly Cloudy 91 33 73 23 56 56 S 5 7 29.93 1014 10 16 0.00 0.00
3:56 pm 15:56 Mostly Cloudy 86 30 75 24 70 70 SE 8 13 29.91 1013 10 16 0.00 0.00
4:47 pm 16:47 Partly Cloudy 90 32 75 24 63 63 SSW 9 15 29.91 1013 10 16 0.00 0.00
5:46 pm 17:46 Partly Cloudy with Light Showers 82 28 77 25 84 84 ENE 6 9 29.91 1013 10 16 0.00 0.00
6:54 pm 18:54 Partly Cloudy 84 29 75 24 74 74 SSW 9 15 29.91 1013 10 16 0.00 0.00
7:49 pm 19:49 Partly Cloudy 84 29 75 24 74 74 SSW 6 9 29.93 1014 10 16 0.00 0.00
8:48 pm 20:48 Mostly Clear 82 28 75 24 79 79 SSW 6 9 29.93 1014 10 16 0.00 0.00
9:52 pm 21:52 Mostly Clear 82 28 75 24 79 79 Calm 29.94 1014 10 16 0.00 0.00
10:15 pm 22:15 Clear 83 28.5 75 24 77 77 WSW 3 6 29.94 1014 10 16 0.00 0.00
10:35 pm 22:35 Clear 83 28.4 75 24.1 78 78 WSW 3 6 29.94 1014 10 16 0.00 0.00
10:55 pm 22:55 Clear 80 26.8 76 24.4 87 87 ESE 3 6 29.94 1014 10 16 0.00 0.00
11:15 pm 23:15 Clear 80 26.6 76 24.6 89 89 SE 3 6 29.94 1014 10 16 0.00 0.00
11:35 pm 23:35 Clear 80 26.4 76 24.5 89 89 SSE 5 7 29.94 1014 10 16 0.00 0.00
11:55 pm 23:55 Clear 78 25.8 76 24.3 91 91 SE 5 7 29.94 1014 10 16 0.00 0.00

Powered by AerisWeather